Hourly Data Report for June 29, 2021

TORONTO CITY
ONTARIO
Current Station Operator: ECCC - MSC

43°40'00.000" N
79°24'00.000" W
112.50 m
6158355
71508
XTO

Download Data

Hourly Data (June 2021)
Hourly Data Report for June 29, 2021
TIME
LST
Temp Definition
°C
Dew Point Definition
°C
Rel Hum Definition
%
Precip. Amount Definition
mm

Wind Dir Definition
10's deg

Wind Spd Definition
km/h
Visibility Definition
km
Stn Press Definition
kPa
Hmdx Definition


Wind Chill Definition


Weather Definition


00:00 24.7 19.0 70 0.0       100.78 31   LegendNANA
01:00 24.4 19.4 74 0.0       100.78 31   LegendNANA
02:00 22.0 20.9 93 4.7       100.80 30   LegendNANA
03:00 22.0 21.0 94 0.0       100.82 30   LegendNANA
04:00 22.1 21.3 96 0.0       100.81 31   LegendNANA
05:00 22.0 21.2 96 0.0       100.85 31   LegendNANA
06:00 21.9 20.9 94 0.0       100.83 30   LegendNANA
07:00 23.4 21.2 88 0.0       100.82 32   LegendNANA
08:00 25.3 21.0 77 0.0       100.79 34   LegendNANA
09:00 25.3 21.0 77 0.0       100.78 34   LegendNANA
10:00 26.9 21.5 73 0.0       100.75 36   LegendNANA
11:00 29.1 22.1 66 0.0       100.72 39   LegendNANA
12:00 29.4 22.6 67 0.0       100.66 39   LegendNANA
13:00 24.5 23.3 93 7.7       100.64 35   LegendNANA
14:00 27.5 22.9 76 0.1       100.63 38   LegendNANA
15:00 23.4 22.0 92 9.8       100.57 33   LegendNANA
16:00 24.0 22.6 92 0.0       100.56 34   LegendNANA
17:00 23.0 21.6 92 0.0       100.50 32   LegendNANA
18:00 22.6 21.1 91 2.5       100.57 31   LegendNANA
19:00 22.7 21.3 92 0.2       100.50 31   LegendNANA
20:00 20.9 19.6 92 0.0       100.44 28   LegendNANA
21:00 20.8 20.0 95 0.0       100.53 28   LegendNANA
22:00 21.0 20.3 96 0.0       100.46 29   LegendNANA
23:00 21.4 19.9 92 0.0       100.46 29   LegendNANA

Notes on Data Quality.

Legend

  • E = Estimated
  • M = Missing
  • NA = Not Available*
  • [empty] = Indicates an unobserved value
Date modified: